Location: Bednik
(45.3500°N, 16.3833°E)
Time: 08:01:59
(UTC+00:00)

OE (NEXTSAT) - Pass Details

Date: 08 August 2020
Orbit: 431 x 438 km, 46.0° (Epoch: 27 September)

Event Time Altitude Azimuth Distance (km) Brightness Sun altitude
Rises 19:00:18 0° 281° (WNW) 2,419 9.6 -8.3°
Reaches altitude 10° 19:02:26 10° 280° (W) 1,548 8.4 -8.6°
Maximum altitude 19:05:56 76° 195° (SSW) 453 4.3 -9.1°
Enters shadow 19:08:57 13° 110° (ESE) 1,355 6.2 -9.6°
